Regional Weather Roundup
Issued by NWS

Home | Current Version | Previous Version | Graphics & Text | Print | Product List | Glossary On
Versions: 1 2 3 4 5 6 7 8 9 10 11 12 13 14 15 16 17 18 19 20 21 22 23 24 25 26 27 28 29 30 31 32 33 34 35 36 37 38 39 40 41 42 43 44 45 46 47 48 49 50
000
ASUS43 KTOP 242359
RWRKS

WEATHER ROUNDUP FOR KANSAS
NATIONAL WEATHER SERVICE GOODLAND KS
600 PM CST WED DEC 24 2014

NOTE:  "FAIR" INDICATES FEW OR NO CLOUDS BELOW 12,000 FEET WITH NO
SIGNIFICANT WEATHER AND/OR OBSTRUCTIONS TO VISIBILITY.

KSZ001>006-013>018-027>032-041>047-250100-
NORTHWEST KANSAS

CITY           SKY/WX    TMP DP  RH WIND       PRES   REMARKS
GOODLAND       PTCLDY    38  19  46 SW16      29.68F WCI  29
6HR MIN TEMP:  36; 6HR MAX TEMP:  42;

HAYS           CLEAR     36  16  44 S8        29.78F
HILL CITY      FAIR      39  14  36 S6        29.73F
6HR MIN TEMP:  38; 6HR MAX TEMP:  47;

RUSSELL        CLEAR     34  22  61 S9        29.77F
6HR MIN TEMP:  33; 6HR MAX TEMP:  44;

$$

KSZ061>065-074>080-084>089-250100-
SOUTHWEST KANSAS

CITY           SKY/WX    TMP DP  RH WIND       PRES   REMARKS
DODGE CITY     CLEAR     36  16  44 SW7       29.81F
6HR MIN TEMP:  36; 6HR MAX TEMP:  44;

ELKHART          N/A     41   8  25 S10         N/A
GARDEN CITY    CLEAR     36  15  42 S7        29.78F
6HR MIN TEMP:  35; 6HR MAX TEMP:  45;

GREAT BEND     CLEAR     36  19  51 SW6       29.82S
LIBERAL        CLEAR     37  12  35 SW10      29.82F WCI  30
$$

KSZ066>073-081>083-090>101-250100-
SOUTHEAST KANSAS

CITY           SKY/WX    TMP DP  RH WIND       PRES   REMARKS
CHANUTE        CLOUDY    36  29  75 W7        29.89S
6HR MIN TEMP:  36; 6HR MAX TEMP:  38;

COFFEYVILLE    CLEAR     34  30  85 CALM      29.91S
6HR MIN TEMP:  34; 6HR MAX TEMP:  39; 6HR PCP: TRACE;

HUTCHINSON     CLEAR     38  23  55 SW5       29.84R
6HR MIN TEMP:  37; 6HR MAX TEMP:  45;

NEWTON         CLEAR     32  21  64 S6        29.85S
PARSONS        CLEAR     33  28  81 CALM      29.91S
6HR MIN TEMP:  33; 6HR MAX TEMP:  39;

WICHITA INTL   PTCLDY    34  23  64 S6        29.85S
6HR MIN TEMP:  34; 6HR MAX TEMP:  46;

WICHITA JABRA  CLEAR     36  24  62 SW5       29.85R
6HR MIN TEMP:  35; 6HR MAX TEMP:  43;

WINFIELD       CLEAR     37  29  72 SW7       29.89S
6HR MIN TEMP:  36; 6HR MAX TEMP:  44;

$$

KSZ007>012-019>026-033>040-048>060-102>105-250100-
NORTHEAST KANSAS

CITY           SKY/WX    TMP DP  RH WIND       PRES   REMARKS
CONCORDIA      CLEAR     32  25  75 SW8       29.78S
6HR MIN TEMP:  31; 6HR MAX TEMP:  41;

EMPORIA        PTCLDY    30  27  88 SW6       29.85S
6HR MIN TEMP:  30; 6HR MAX TEMP:  35;

LAWRENCE       CLOUDY    35  28  75 W9        29.86R
6HR MIN TEMP:  35; 6HR MAX TEMP:  36;

MANHATTAN      CLEAR     30  27  88 CALM      29.83S
6HR MIN TEMP:  29; 6HR MAX TEMP:  36;

OLATHE IND     CLOUDY    34  29  82 W10       29.85R WCI  26
6HR MIN TEMP:  34; 6HR MAX TEMP:  36;

OLATHE EXE     CLOUDY    34  29  82 W8        29.83R
6HR MIN TEMP:  34; 6HR MAX TEMP:  36;

SALINA         CLEAR     36  25  64 SW6       29.83R
6HR MIN TEMP:  34; 6HR MAX TEMP:  43;

TOPEKA BILLARD CLOUDY    36  30  79 SW9       29.86R
6HR MIN TEMP:  36; 6HR MAX TEMP:  37;

TOPEKA FORBES  CLOUDY    35  29  78 W8        29.85R
6HR MIN TEMP:  35; 6HR MAX TEMP:  37;

$$


USA.gov is the U.S. government's official web portal to all federal, state and local government web resources and services.